Seminole, TX

4:02 PM CDT on August 22, 2017 (GMT -0500)
Seminole

Weather History for KGNC - July, 2013

Change the Weather History Date:

Wednesday, July 17, 2013

  Actual Average (KHOB) Record (KHOB)
Temperature  
Mean Temperature 70 °F -  
Max Temperature 75 °F 93 °F 104 °F (2001)
Min Temperature 64 °F 66 °F 59 °F (2007)
Cooling Degree Days 4    
Growing Degree Days 20 (Base 50)    
Moisture  
Dew Point 65 °F    
Average Humidity 86    
Maximum Humidity 97    
Minimum Humidity 67    
Precipitation  
Precipitation 0.79 in - - ()
Sea Level Pressure  
Sea Level Pressure 30.28 in    
Wind  
Wind Speed 6 mph (ESE)    
Max Wind Speed 18 mph    
Max Gust Speed 25 mph    
Visibility 9 miles    
Events Rain    
Averages and records for this station are not official NWS values.
T = Trace of Precipitation, MM = Missing Value Source: NWS Daily Summary

Daily Weather History Graph

Daily Weather History Graph

Search for Another Location

Airport or City:

Trip Planner

Search our weather history database for the weather conditions in past years. The results will help you decide how hot, cold, wet, or windy it might be!

Date:

Astronomy

Jul. 17, 2013 Rise Set
Actual Time 6:55 AM CDT 8:58 PM CDT
Civil Twilight 6:27 AM CDT 9:26 PM CDT
Nautical Twilight 5:53 AM CDT 9:59 PM CDT
Astronomical Twilight 5:17 AM CDT 10:35 PM CDT
Moon 3:53 PM CDT (7/17) 1:57 AM CDT (7/17)
Length of Visible Light 14h 58m
Length of Day
14h 03m
Waxing Gibbous, 67% of the Moon is Illuminated
Jul 17
Waxing Gibbous
Jul 22
Full
Jul 29
Last Quarter
Aug 6
New
Aug 14
First Quarter

Hourly Weather History & Observations

Time (CDT) Temp. Dew Point Humidity Pressure Visibility Wind Dir Wind Speed Gust Speed Precip Events Conditions
12:15 AM 68.0 °F 64.6 °F 89% 30.26 in 10.0 mi Calm Calm - N/A   Overcast
12:35 AM 67.3 °F 65.3 °F 93% 30.26 in 7.0 mi Calm Calm - 0.01 in Rain Light Rain
12:55 AM 67.1 °F 65.5 °F 95% 30.26 in 10.0 mi Calm Calm - 0.02 in   Light Drizzle
1:15 AM 66.9 °F 65.3 °F 95% 30.26 in 10.0 mi Calm Calm - N/A   Overcast
1:35 AM 67.1 °F 65.7 °F 95% 30.25 in 7.0 mi Calm Calm - N/A   Drizzle
1:55 AM 66.6 °F 65.3 °F 96% 30.25 in 4.0 mi East 11.5 mph - 0.08 in Rain Rain
2:15 AM 66.6 °F 65.3 °F 96% 30.25 in 7.0 mi East 15.0 mph 18.4 mph 0.01 in Rain Rain
2:35 AM 65.7 °F 64.4 °F 96% 30.25 in 4.0 mi SE 18.4 mph 25.3 mph 0.10 in Rain Light Rain
2:55 AM 65.3 °F 63.7 °F 94% 30.25 in 5.0 mi SE 16.1 mph 24.2 mph 0.17 in Rain Light Rain
3:15 AM 64.9 °F 63.9 °F 96% 30.25 in 4.0 mi SE 9.2 mph 18.4 mph 0.08 in Rain Heavy Rain
3:35 AM 65.3 °F 64.4 °F 97% 30.25 in 4.0 mi SSE 10.4 mph 20.7 mph 0.19 in Rain Rain
3:55 AM 65.5 °F 64.4 °F 96% 30.25 in 4.0 mi Calm Calm - 0.29 in Rain Rain
4:15 AM 65.7 °F 64.6 °F 96% 30.24 in 2.0 mi Calm Calm - 0.18 in Rain Heavy Rain
4:35 AM 66.2 °F 64.9 °F 96% 30.25 in 10.0 mi Calm Calm - 0.18 in Rain Rain
4:55 AM 66.2 °F 65.3 °F 97% 30.25 in 7.0 mi Calm Calm - 0.19 in   Light Drizzle
5:15 AM 66.4 °F 65.5 °F 97% 30.25 in 7.0 mi Calm Calm - N/A Rain Rain
5:35 AM 66.7 °F 65.8 °F 97% 30.25 in 7.0 mi Calm Calm - 0.01 in   Drizzle
5:55 AM 66.6 °F 65.7 °F 97% 30.26 in 7.0 mi SE 6.9 mph - 0.02 in   Drizzle
6:15 AM 66.7 °F 65.8 °F 97% 30.26 in 10.0 mi SE 9.2 mph - N/A Rain Light Rain
6:35 AM 66.7 °F 65.7 °F 96% 30.26 in 10.0 mi SE 9.2 mph - N/A   Overcast
6:55 AM 66.7 °F 65.7 °F 96% 30.27 in 10.0 mi SE 8.1 mph - N/A   Overcast
7:15 AM 66.7 °F 65.7 °F 96% 30.27 in 10.0 mi ESE 9.2 mph - N/A   Overcast
7:35 AM 66.7 °F 65.5 °F 96% 30.28 in 7.0 mi SE 8.1 mph - N/A   Overcast
7:55 AM 66.7 °F 65.5 °F 96% 30.28 in 10.0 mi SE 12.7 mph - N/A Rain Light Rain
8:15 AM 66.7 °F 65.5 °F 96% 30.28 in 10.0 mi SE 11.5 mph - N/A   Mostly Cloudy
8:35 AM 66.9 °F 65.5 °F 95% 30.29 in 7.0 mi SE 10.4 mph - N/A   Scattered Clouds
8:55 AM 67.6 °F 66.0 °F 95% 30.29 in 10.0 mi SE 10.4 mph - N/A   Mostly Cloudy
9:15 AM 68.2 °F 65.8 °F 92% 30.30 in 10.0 mi SE 9.2 mph - N/A   Mostly Cloudy
9:35 AM 68.5 °F 65.3 °F 89% 30.31 in 10.0 mi SE 9.2 mph - N/A   Overcast
9:55 AM 68.9 °F 65.1 °F 88% 30.31 in 10.0 mi SE 6.9 mph - N/A   Mostly Cloudy
10:15 AM 69.1 °F 64.8 °F 86% 30.31 in 10.0 mi SE 8.1 mph - N/A   Mostly Cloudy
10:35 AM 69.8 °F 64.9 °F 84% 30.31 in 10.0 mi ESE 9.2 mph - N/A   Scattered Clouds
10:55 AM 70.5 °F 64.9 °F 82% 30.32 in 10.0 mi SE 9.2 mph - N/A   Scattered Clouds
11:15 AM 70.7 °F 65.1 °F 82% 30.32 in 10.0 mi SE 11.5 mph - N/A   Mostly Cloudy
11:35 AM 71.2 °F 63.3 °F 76% 30.32 in 10.0 mi SSE 10.4 mph - N/A   Scattered Clouds
11:55 AM 70.7 °F 63.9 °F 79% 30.32 in 10.0 mi SE 10.4 mph - N/A   Scattered Clouds
12:15 PM 71.8 °F 63.1 °F 74% 30.32 in 10.0 mi SE 11.5 mph - N/A   Scattered Clouds
12:35 PM 71.8 °F 63.7 °F 76% 30.32 in 10.0 mi SSE 9.2 mph - N/A   Clear
12:55 PM 71.6 °F 63.3 °F 75% 30.32 in 10.0 mi SE 8.1 mph - N/A   Scattered Clouds
1:15 PM 72.0 °F 63.7 °F 75% 30.31 in 10.0 mi SE 6.9 mph - N/A   Scattered Clouds
1:35 PM 73.6 °F 63.9 °F 72% 30.31 in 10.0 mi SE 6.9 mph - N/A   Scattered Clouds
1:55 PM 73.4 °F 63.5 °F 71% 30.31 in 10.0 mi SE 9.2 mph - N/A   Scattered Clouds
2:15 PM 73.4 °F 63.5 °F 71% 30.30 in 7.0 mi ESE 6.9 mph - N/A   Scattered Clouds
2:35 PM 73.4 °F 63.5 °F 71% 30.30 in 10.0 mi ESE 9.2 mph - N/A   Mostly Cloudy
2:55 PM 72.7 °F 64.4 °F 75% 30.29 in 10.0 mi East 6.9 mph - N/A Rain Light Rain
3:15 PM 72.5 °F 64.2 °F 75% 30.29 in 10.0 mi ESE 10.4 mph - N/A   Light Drizzle
3:35 PM 69.8 °F 64.8 °F 84% 30.28 in 10.0 mi East 4.6 mph - 0.01 in   Mostly Cloudy
3:55 PM 72.3 °F 65.5 °F 79% 30.28 in 10.0 mi East 3.5 mph - 0.01 in   Scattered Clouds
4:15 PM 73.4 °F 64.8 °F 74% 30.28 in 10.0 mi East 4.6 mph - N/A   Scattered Clouds
4:35 PM 73.4 °F 64.9 °F 75% 30.27 in 10.0 mi South 5.8 mph - N/A   Mostly Cloudy
4:55 PM 70.3 °F 65.3 °F 84% 30.27 in 10.0 mi West 8.1 mph - N/A   Mostly Cloudy
5:15 PM 70.0 °F 66.6 °F 89% 30.27 in 7.0 mi West 4.6 mph - 0.01 in   Light Drizzle
5:35 PM 71.2 °F 65.7 °F 82% 30.27 in 10.0 mi Calm Calm - 0.01 in   Scattered Clouds
5:55 PM 73.2 °F 64.9 °F 75% 30.26 in 10.0 mi East 4.6 mph - 0.01 in   Mostly Cloudy
6:15 PM 75.4 °F 64.2 °F 68% 30.25 in 10.0 mi ENE 5.8 mph - N/A   Scattered Clouds
6:35 PM 75.4 °F 64.0 °F 68% 30.25 in 10.0 mi East 4.6 mph - N/A   Scattered Clouds
6:55 PM 75.2 °F 63.5 °F 67% 30.25 in 10.0 mi East 6.9 mph - N/A   Scattered Clouds
7:15 PM 73.6 °F 64.6 °F 73% 30.25 in 10.0 mi East 6.9 mph - N/A Rain Light Rain
7:35 PM 73.4 °F 63.7 °F 71% 30.25 in 10.0 mi East 5.8 mph - N/A   Light Drizzle
7:55 PM 73.4 °F 64.0 °F 72% 30.25 in 10.0 mi East 5.8 mph - N/A   Clear
8:15 PM 73.4 °F 64.9 °F 75% 30.25 in 10.0 mi East 6.9 mph - N/A   Clear
8:35 PM 70.0 °F 64.4 °F 82% 30.27 in 10.0 mi East 12.7 mph 19.6 mph N/A   Mostly Cloudy
8:55 PM 69.3 °F 64.8 °F 86% 30.27 in 10.0 mi East 9.2 mph - N/A   Scattered Clouds
9:15 PM 68.9 °F 65.3 °F 88% 30.27 in 10.0 mi East 6.9 mph - N/A   Clear
9:35 PM 68.9 °F 66.2 °F 91% 30.27 in 10.0 mi East 8.1 mph - N/A   Mostly Cloudy
9:55 PM 68.9 °F 66.4 °F 92% 30.28 in 10.0 mi East 8.1 mph - N/A   Mostly Cloudy
10:15 PM 68.9 °F 66.4 °F 92% 30.28 in 10.0 mi East 9.2 mph - N/A   Mostly Cloudy
10:35 PM 68.9 °F 66.4 °F 92% 30.28 in 10.0 mi East 8.1 mph - N/A   Overcast
10:55 PM 68.9 °F 66.6 °F 92% 30.29 in 10.0 mi East 9.2 mph - N/A Rain Light Rain
11:15 PM 68.4 °F 66.4 °F 93% 30.29 in 10.0 mi East 11.5 mph - N/A   Light Drizzle
11:35 PM 68.4 °F 66.4 °F 93% 30.29 in 10.0 mi East 11.5 mph 17.3 mph N/A   Overcast
11:55 PM 68.0 °F 65.5 °F 92% 30.29 in 10.0 mi East 9.2 mph - N/A   Mostly Cloudy